Location: Cary
(35.7910°N, 78.7810°W)
Time: 11:04:27
(UTC-05:00)

N. Korean satellite - Pass Details

Date: 30 November 2021
Orbit: 447 x 491 km, 97.3° (Epoch: 25 January)

Event Time Altitude Azimuth Distance (km) Brightness Sun altitude
Rises 06:31:42 0° 345° (NNW) 2,462 9.8 -7.2°
Reaches altitude 10° 06:35:08 10° 307° (NW) 1,578 8.5 -6.5°
Maximum altitude 06:36:01 11° 292° (WNW) 1,523 8.4 -6.4°
Drops below altitude 10° 06:36:55 10° 276° (W) 1,573 8.5 -6.2°
Sets 06:40:19 0° 238° (WSW) 2,436 9.8 -5.6°
